Regional Weather Roundup
Issued by NWS Columbia, SC

Current Version | Previous Version | Text Only | Print | Product List | Glossary On
Versions: 1 2 3 4 5 6 7 8 9 10 11 12 13 14 15 16 17 18 19 20 21 22 23 24 25 26 27 28 29 30 31 32 33 34 35 36 37 38 39 40 41 42 43 44 45 46 47 48 49 50
000
ASUS42 KCAE 280410
RWRCAE
REGIONAL WEATHER ROUNDUP
NATIONAL WEATHER SERVICE COLUMBIA SC
1200 AM EDT THU AUG 28 2014

NOTE: "FAIR" INDICATES FEW OR NO CLOUDS BELOW 12,000 FEET WITH NO
SIGNIFICANT WEATHER AND/OR OBSTRUCTIONS TO VISIBILITY.

NOT ALL STATIONS ARE QUALITY CONTROLLED BY THE NATIONAL
WEATHER SERVICE. USE DATA WITH CAUTION...ESPECIALLY
DEWPOINT OBSERVATIONS.

SCZ001>056-GAZ040-063>065-077-280500-
...UPSTATE SOUTH CAROLINA...

CITY           SKY/WX    TMP DP  RH WIND       PRES   REMARKS
ANDERSON       CLEAR     67  59  75 CALM      30.05S
LIBERTY        FAIR      65  32  28 MISG      30.05F
SPARTANBURG    FAIR      68  63  83 CALM      30.04S
CLEMSON        CLEAR     76  67  73 CALM      30.06S
GREENVILLE     CLEAR     74  61  63 CALM      30.06F
GREENWOOD      CLEAR     64  56  75 CALM      30.05F
GREER          CLEAR     70  61  73 CALM      30.04F
ROCK HILL      CLEAR     62  59  90 CALM      30.04S
LAURENS        FAIR      64  50  59 CALM      30.05S


...CENTRAL SOUTH CAROLINA...

CITY           SKY/WX    TMP DP  RH WIND       PRES   REMARKS
COLUMBIA APT   CLEAR     69  61  75 CALM      30.01S
COLUMBIA OWENS CLEAR     72  59  63 CALM      30.02S
DARLINGTON     CLEAR     66  57  72 CALM      30.02R
FLORENCE       CLEAR     67  59  75 CALM      30.00F
MCENTIRE ANGB  CLEAR     67  60  78 CALM      30.02S
ORANGEBURG     CLEAR     69  61  75 CALM      30.03R
SUMTER SHAW    CLEAR     69  60  72 CALM      30.00S
NEWBERRY       FAIR      63  54  72 CALM      30.07R
AIKEN          FAIR      68  61  77 CALM      30.06F
BARNWELL       FAIR      66  57  72 CALM      30.03S
MANNING        FAIR      66 N/A N/A CALM      30.02R
CAMDEN         FAIR      68  57  68 CALM      30.03S
LANCASTER      FAIR      63  61  94 CALM      30.03S
WINNSBORO      FAIR      70  59  68 CALM      30.03S


...EASTERN AND COASTAL SOUTH CAROLINA...

CITY           SKY/WX    TMP DP  RH WIND       PRES   REMARKS
MYRTLE BEACH   CLEAR     70  64  83 CALM      30.00R
CONWAY         FAIR      64  64 100 CALM      30.00R
MARION         FAIR      66  61  82 CALM      30.00S
HARTSVILLE     FAIR      68  45  42 CALM      30.02R
FLORENCE       CLEAR     67  59  75 CALM      30.00F
DARLINGTON     CLEAR     66  57  72 CALM      30.02R
CHARLESTON APT CLEAR     73  66  78 CALM      30.01S
MOUNT PLEASANT FAIR      70  70 100 CALM      30.01S
WALTERBORO     CLEAR     68  68 100 CALM      30.02S
BEAUFORT       CLEAR     73  66  78 CALM      30.01S


...EASTERN GEORGIA...

CITY           SKY/WX    TMP DP  RH WIND       PRES   REMARKS
AUGUSTA BUSH F CLEAR     64  59  83 CALM      30.01S
AUGUSTA DANIEL CLEAR     78  56  46 NE5       30.03S
THOMSON        CLEAR     66  65  98 CALM      30.08S
WASHINGTON     FAIR      68  55  64 E3        30.04F
SYLVANIA       CLEAR     69  65  89 CALM      30.03S
STATESBORO     CLEAR     66  66 100 CALM      30.02S
SAVANNAH       CLEAR     72  65  78 CALM      30.02S


...SOUTHERN NORTH CAROLINA...

CITY           SKY/WX    TMP DP  RH WIND       PRES   REMARKS
CHARLOTTE      CLEAR     66  61  84 CALM      30.04S
MONROE         CLEAR     65  57  75 CALM      30.02S
WADESBORO      CLEAR     65  62  90 CALM      30.01S
ROCKINGHAM     CLEAR     69  59  68 CALM      30.01R
RUTHERFORDTON  CLEAR     65  62  90 CALM      30.06F
ASHEVILLE      CLEAR     66  61  84 CALM      30.13S

$$


USA.gov is the U.S. government's official web portal to all federal, state and local government web resources and services.